Flag for Turkey Weather past 2 weeks in Izmir, Turkey

Now
77 °F

Sunny.


Feels Like: 78 °F
Forecast: 50 / 83 °F
Wind: 21 mph from North

Location: Izmir / Adnan Menderes

Current Time: Sep 30, 2014 at 3:20:25 PM

Latest Report: Sep 30, 2014 at 2:50 PM


Visibility: 10 mi

Pressure: 30.09 "Hg

Humidity: 32%

Dew point: 45 °F

Location of IzmirLocation

Historic Weather in Izmir — Graph

°F

Izmir temperature yesterday

Maximum temperature yesterday: 77 °F (at 3:50 PM)
Minimum temperature yesterday: 61 °F (at 4:20 AM)
Average temperature yesterday: 68 °F

Past Weeks' High & Low Weather Summary

 TemperatureHumidityPressure
High90 °F (Sep 23, 3:20 PM)100% (Sep 27, 12:50 AM)30.21 "Hg (Sep 27, 12:50 AM)
Low50 °F (Sep 25, 7:20 AM)16% (Sep 21, 2:20 PM)29.74 "Hg (Sep 23, 12:50 PM)
Average70 °F57%29.94 "Hg
* Reported Sep 15 1:20 PM — Sep 30 1:50 PM, Izmir, Weather by CustomWeather, © 2014

Note: Actual official high and low records may vary slightly from our data, if they occured in-between our weather recording intervals... More about our weather records

Advertising

Izmir weather history for previous 24 hours

 ConditionsComfort  
Time TempWeatherWind HumidityBarometerVisibility
1:50 PM
Sep 30
77 °FSunny.21 mph34%30.12 "Hg10 mi
1:20 PM75 °FSunny.22 mph36%30.12 "Hg10 mi
12:50 PM75 °FSunny.23 mph39%30.12 "Hg10 mi
12:20 PM75 °FSunny.24 mph31%30.15 "Hg10 mi
11:50 AM73 °FSunny.18 mph38%30.15 "Hg10 mi
11:20 AM72 °FSunny.15 mph44%30.15 "Hg10 mi
10:50 AM70 °FSunny.13 mph46%30.15 "Hg10 mi
10:20 AM70 °FSunny.14 mph50%30.18 "Hg10 mi
9:50 AM68 °FSunny.15 mph49%30.18 "Hg10 mi
9:20 AM66 °FSunny.13 mph52%30.18 "Hg10 mi
8:50 AM64 °FSunny.13 mph56%30.15 "Hg10 mi
8:20 AM63 °FSunny.14 mph59%30.18 "Hg10 mi
7:50 AM61 °FClear.13 mph63%30.15 "Hg10 mi
7:20 AM59 °FClear.12 mph68%30.15 "Hg10 mi
6:50 AM59 °FPassing clouds.6 mph68%30.15 "HgN/A
6:20 AM59 °FClear.8 mph68%30.15 "Hg10 mi
5:50 AM59 °FClear.10 mph68%30.15 "Hg10 mi
5:20 AM61 °FClear.9 mph68%30.15 "Hg10 mi
4:50 AM61 °FClear.15 mph68%30.15 "Hg10 mi
4:20 AM63 °FClear.17 mph59%30.15 "Hg10 mi
3:50 AM61 °FClear.10 mph68%30.15 "Hg10 mi
3:20 AM63 °FClear.17 mph64%30.15 "Hg10 mi
2:50 AM63 °FClear.12 mph64%30.18 "Hg10 mi
2:20 AM63 °FClear.14 mph64%30.18 "Hg10 mi
1:50 AM63 °FClear.16 mph64%30.18 "Hg10 mi
1:20 AM63 °FClear.17 mph64%30.18 "Hg10 mi
12:50 AM63 °FClear.14 mph64%30.18 "Hg10 mi
12:20 AM63 °FClear.15 mph64%30.21 "Hg10 mi
11:50 PM
Sep 29
64 °FClear.18 mph60%30.21 "Hg10 mi
11:20 PM64 °FClear.20 mph60%30.21 "Hg10 mi
10:50 PM64 °FClear.18 mph60%30.21 "Hg10 mi
10:20 PM64 °FClear.15 mph60%30.21 "Hg10 mi
9:50 PM64 °FClear.16 mph60%30.18 "Hg10 mi
9:20 PM66 °FClear.17 mph56%30.18 "Hg10 mi
8:50 PM66 °FClear.20 mph56%30.18 "Hg10 mi
8:20 PM68 °FClear.20 mph53%30.18 "Hg10 mi
7:50 PM70 °FSunny.18 mph50%30.18 "Hg10 mi
7:20 PM70 °FSunny.20 mph50%30.15 "Hg10 mi
6:50 PM72 °FSunny.20 mph47%30.15 "Hg10 mi
6:20 PM72 °FPassing clouds.22 mph44%30.15 "HgN/A
5:50 PM73 °FPassing clouds.23 mph41%30.15 "HgN/A
5:20 PM75 °FPassing clouds.20 mph39%30.15 "HgN/A
4:50 PM75 °FPassing clouds.22 mph39%30.15 "HgN/A
4:20 PM75 °FPassing clouds.21 mph39%30.15 "HgN/A
3:50 PM77 °FScattered clouds.22 mph36%30.15 "HgN/A
3:20 PM75 °FScattered clouds.21 mph39%30.15 "HgN/A
Weather by CustomWeather, © 2014

See weather overviewHow to use our weather pages